This is the latest recevied weather packets stored in our database for station/object KK7RJD. If no packets are shown the sender has not sent any weather packets the latest 10 day(s).
| Time | Temp. | Humidity | Pressure | Rain* | Wind** | Luminosity | Snow |
|---|---|---|---|---|---|---|---|
| 1777131232 | 2.22° C | 51% | 1014 hPa | 0 mm | - | 430 W/m² | - |
| 1777130928 | 1.67° C | 53% | 1014 hPa | 0 mm | - | 485 W/m² | - |
| 1777130623 | 1.11° C | 55% | 1014 hPa | 0 mm | - | 472 W/m² | - |
| 1777130321 | 1.11° C | 54% | 1014 hPa | 0 mm | - | 425 W/m² | - |
| 1777130017 | 1.11° C | 56% | 1014.1 hPa | 0 mm | - | 320 W/m² | - |
| 1777129712 | 1.67° C | 53% | 1014.1 hPa | 0 mm | - | 463 W/m² | - |
| 1777129412 | 1.67° C | 53% | 1014 hPa | 0 mm | - | 462 W/m² | - |
| 1777129106 | 1.11° C | 57% | 1014.2 hPa | 0 mm | - | 361 W/m² | - |
| 1777128802 | 0.56° C | 60% | 1014 hPa | 0 mm | - | 122 W/m² | - |
| 1777128500 | 0° C | 62% | 1014.1 hPa | 0 mm | - | 364 W/m² | - |
| 1777128196 | 0° C | 63% | 1014.2 hPa | 0 mm | - | 353 W/m² | - |
| 1777127894 | -0.56° C | 63% | 1014 hPa | 0 mm | - | 268 W/m² | - |
| 1777127591 | 0° C | 62% | 1014.2 hPa | 0 mm | - | 153 W/m² | - |
| 1777127288 | 0° C | 65% | 1014.3 hPa | 0 mm | - | 87 W/m² | - |
| 1777126983 | -0.56° C | 67% | 1014.3 hPa | 0 mm | - | 278 W/m² | - |
| 1777126680 | -0.56° C | 68% | 1014.2 hPa | 0 mm | - | 264 W/m² | - |
| 1777126375 | -1.11° C | 70% | 1014.2 hPa | 0 mm | - | 67 W/m² | - |
| 1777126072 | -1.67° C | 75% | 1014 hPa | 0 mm | - | 69 W/m² | - |
| 1777125768 | -2.22° C | 73% | 1014 hPa | 0 mm | - | 99 W/m² | - |
| 1777125464 | -2.22° C | 74% | 1014 hPa | 0 mm | - | 100 W/m² | - |
| 1777125159 | -2.78° C | 74% | 1013.8 hPa | 0 mm | - | 92 W/m² | - |
| 1777124855 | -2.78° C | 75% | 1013.7 hPa | 0 mm | - | 91 W/m² | - |
| 1777124551 | -2.78° C | 76% | 1014.1 hPa | 0 mm | - | 87 W/m² | - |
| 1777124248 | -3.33° C | 76% | 1014.1 hPa | 0 mm | - | 84 W/m² | - |
| 1777123945 | -3.33° C | 77% | 1014.2 hPa | 0 mm | - | 75 W/m² | - |
* Rain latest hour (hover to see other rain measurements)
** Current wind speed in m/s (hover to see current wind gust speed)